Weather History for Toledo, OH

Change the Weather History Date:

Friday, January 11, 2013

  Actual Average Record
Temperature  
Mean Temperature 47 °F 25 °F  
Max Temperature 58 °F 33 °F 68 °F (1890)
Min Temperature 36 °F 18 °F -14 °F (1979)
Degree Days  
Heating Degree Days 18 40  
Month to date heating degree days 406 431  
Since 1 July heating degree days 2657 2756  
Cooling Degree Days 0 0  
Month to date cooling degree days 0 0  
Year to date cooling degree days 0 0  
Moisture  
Dew Point 43 °F    
Average Humidity 83    
Maximum Humidity 93    
Minimum Humidity 72    
Precipitation  
Precipitation 0.76 in 0.07 in 0.76 in (2013)
Month to date precipitation 0.76 0.81  
Year to date precipitation 0.76 0.81  
Snow  
Snow 0.00 in 0.30 in - ()
Month to date snowfall T 3.8  
Since 1 July snowfall 7.0 13.3  
Snow Depth 0.00 in    
Sea Level Pressure  
Sea Level Pressure 29.91 in    
Wind  
Wind Speed 9 mph (South)    
Max Wind Speed 24 mph    
Max Gust Speed 31 mph    
Visibility 7 miles    
Events Rain    
T = Trace of Precipitation, MM = Missing Value Source: NWS Daily Summary

Daily Weather History Graph

Daily Weather History Graph

Search for Another Location

Airport:

Trip Planner

Search our weather history database for the weather conditions in past years. The results will help you decide how hot, cold, wet, or windy it might be!

Date:

Astronomy

Jan. 11, 2013 Rise Set
Actual Time 8:00 AM EST 5:25 PM EST
Civil Twilight 7:30 AM EST 5:56 PM EST
Nautical Twilight 6:55 AM EST 6:31 PM EST
Astronomical Twilight 6:22 AM EST 7:04 PM EST
Moon 7:32 AM EST (1/11) 5:43 PM EST (1/11)
Length of Visible Light 10h 26m
Length of Day
9h 25m
Waning Crescent, 0% of the Moon is Illuminated
Jan 11
Waning Crescent
Jan 11
New
Jan 18
First Quarter
Jan 26
Full
Feb 3
Last Quarter

Hourly Weather History & Observations

Time (EST) Temp. Windchill Dew Point Humidity Pressure Visibility Wind Dir Wind Speed Gust Speed Precip Events Conditions
12:52 AM 37.4 °F 30.8 °F 30.2 °F 75% 30.11 in 10.0 mi ESE 9.2 mph - N/A   Overcast
1:19 AM 37.4 °F 31.4 °F 30.2 °F 75% 30.10 in 4.0 mi ESE 8.1 mph - 0.01 in Rain Rain
1:25 AM 37.4 °F 32.8 °F 30.2 °F 75% 30.10 in 2.5 mi ESE 5.8 mph - 0.05 in Rain Heavy Rain
1:52 AM 36.0 °F 29.0 °F 33.1 °F 89% 30.09 in 2.0 mi East 9.2 mph - 0.22 in Rain Heavy Rain
2:04 AM 35.6 °F 28.6 °F 33.8 °F 93% 30.06 in 4.0 mi East 9.2 mph - 0.03 in Rain Light Rain
2:52 AM 37.0 °F 34.5 °F 34.0 °F 89% 30.07 in 8.0 mi ESE 3.5 mph - 0.03 in   Overcast
3:52 AM 37.0 °F 34.5 °F 34.0 °F 89% 30.02 in 7.0 mi NE 3.5 mph - 0.02 in   Mostly Cloudy
4:52 AM 37.0 °F 33.3 °F 34.0 °F 89% 29.97 in 7.0 mi East 4.6 mph - N/A   Overcast
5:52 AM 37.9 °F 34.4 °F 36.0 °F 93% 29.93 in 6.0 mi East 4.6 mph - 0.03 in Rain Light Rain
6:38 AM 37.4 °F - 37.4 °F 100% 29.92 in 2.0 mi Calm Calm - 0.02 in Rain Heavy Rain
6:48 AM 39.2 °F - 37.4 °F 93% 29.93 in 1.5 mi Calm Calm - 0.06 in Rain Heavy Rain
6:52 AM 39.0 °F - 37.0 °F 93% 29.95 in 1.5 mi Calm Calm - 0.08 in Rain Heavy Rain
7:09 AM 44.6 °F 39.7 °F 42.8 °F 93% 29.93 in 2.5 mi SSW 9.2 mph - N/A Rain Heavy Rain
7:18 AM 44.6 °F 39.2 °F 42.8 °F 93% 29.93 in 1.2 mi South 10.4 mph - 0.16 in Rain Heavy Rain
7:21 AM 44.6 °F 40.2 °F 42.8 °F 93% 29.93 in 1.5 mi SSW 8.1 mph - 0.20 in Rain Heavy Rain
7:27 AM 44.6 °F 40.2 °F 44.6 °F 100% 29.92 in 2.0 mi South 8.1 mph - 0.23 in Rain Heavy Rain
7:42 AM 44.6 °F 40.7 °F 44.6 °F 100% 29.91 in 3.0 mi South 6.9 mph - 0.30 in Rain Rain
7:46 AM 46.4 °F 41.9 °F 44.6 °F 93% 29.91 in 5.0 mi South 9.2 mph - 0.30 in Rain Light Rain
7:52 AM 46.0 °F 41.9 °F 44.1 °F 93% 29.92 in 6.0 mi South 8.1 mph - 0.30 in Rain Light Rain
8:52 AM 46.0 °F 41.4 °F 45.0 °F 96% 29.86 in 4.0 mi SSE 9.2 mph 19.6 mph 0.02 in Rain Light Rain
9:06 AM 46.4 °F 41.1 °F 44.6 °F 93% 29.80 in 5.0 mi SSE 11.5 mph 18.4 mph 0.01 in Rain Light Rain
9:13 AM 48.2 °F - 46.4 °F 93% 29.80 in 7.0 mi SSE 11.5 mph 20.7 mph 0.01 in   Mostly Cloudy
9:52 AM 50.0 °F - 46.9 °F 89% 29.82 in 10.0 mi South 11.5 mph 19.6 mph 0.01 in   Scattered Clouds
10:04 AM 50.0 °F - 46.4 °F 87% 29.81 in 10.0 mi South 10.4 mph 18.4 mph N/A   Mostly Cloudy
10:52 AM 51.1 °F - 48.0 °F 89% 29.84 in 10.0 mi SSW 15.0 mph 24.2 mph N/A   Overcast
11:00 AM 51.8 °F - 48.2 °F 88% 29.83 in 10.0 mi SSW 11.5 mph 20.7 mph N/A   Overcast
11:52 AM 53.1 °F - 48.9 °F 86% 29.83 in 10.0 mi SSW 12.7 mph 19.6 mph N/A   Overcast
12:02 PM 53.6 °F - 50.0 °F 88% 29.83 in 2.5 mi SSW 11.5 mph 19.6 mph 0.01 in Rain Rain
12:18 PM 53.6 °F - 50.0 °F 88% 29.81 in 10.0 mi SW 15.0 mph - 0.05 in Rain Light Rain
12:52 PM 54.0 °F - 51.1 °F 90% 29.81 in 10.0 mi SW 13.8 mph 21.9 mph 0.05 in   Mostly Cloudy
1:30 PM 55.4 °F - 51.8 °F 88% 29.81 in 10.0 mi SW 13.8 mph 23.0 mph N/A   Overcast
1:52 PM 55.9 °F - 50.0 °F 80% 29.82 in 10.0 mi WSW 17.3 mph 24.2 mph N/A   Mostly Cloudy
2:22 PM 57.2 °F - 50.0 °F 77% 29.81 in 10.0 mi SW 16.1 mph 21.9 mph N/A   Scattered Clouds
2:52 PM 57.9 °F - 48.9 °F 72% 29.83 in 10.0 mi WSW 16.1 mph - N/A   Scattered Clouds
3:52 PM 55.9 °F - 48.0 °F 75% 29.85 in 10.0 mi WSW 11.5 mph - N/A   Overcast
4:52 PM 55.9 °F - 46.9 °F 72% 29.87 in 10.0 mi SW 10.4 mph - N/A   Mostly Cloudy
5:52 PM 54.0 °F - 46.9 °F 77% 29.88 in 10.0 mi SSW 5.8 mph - N/A   Mostly Cloudy
6:52 PM 52.0 °F - 45.0 °F 77% 29.91 in 10.0 mi SSW 8.1 mph - N/A   Clear
7:52 PM 50.0 °F - 44.1 °F 80% 29.89 in 10.0 mi South 5.8 mph - N/A   Clear
8:52 PM 48.9 °F - 45.0 °F 86% 29.89 in 10.0 mi South 5.8 mph - N/A   Clear
9:52 PM 48.9 °F - 45.0 °F 86% 29.88 in 10.0 mi South 5.8 mph - N/A   Clear
10:52 PM 48.0 °F - 44.1 °F 86% 29.88 in 10.0 mi South 6.9 mph - N/A   Clear
11:52 PM 48.0 °F - 44.1 °F 86% 29.88 in 10.0 mi SSW 6.9 mph - N/A   Clear